Location: Coopersdale
(40.3556°N, 78.9372°W)
Time: 00:35:11
(UTC+00:00)

Tiros 1 - Pass Details

Date: 22 January 2021
Orbit: 630 x 664 km, 48.4° (Epoch: 06 March)

Event Time Altitude Azimuth Distance (km) Brightness Sun altitude
Rises 23:33:25 0° 234° (SW) 2,923 11.9 -13.5°
Reaches altitude 10° 23:35:45 10° 233° (SW) 2,012 10.8 -14.0°
Maximum altitude 23:40:22 79° 148° (SSE) 646 7.1 -14.8°
Enters shadow 23:43:00 25° 64° (ENE) 1,265 8.1 -15.3°
